Flag for Turkey Weather past 2 weeks in Istanbul, Turkey

Now
63 °F

Clear.


Feels Like: 63 °F
Forecast: 64 / 67 °F
Wind: 7 mph from Northeast

Location: Istanbul Ataturk Airport

Current Time: Oct 2, 2014 at 4:07:24 AM

Latest Report: Oct 2, 2014 at 3:20 AM


Visibility: 10 mi

Pressure: 30.21 "Hg

Humidity: 77%

Dew point: 55 °F

Location of IstanbulLocation

Historic Weather in Istanbul — Graph

°F

Istanbul temperature yesterday

Maximum temperature yesterday: 75 °F (at 2:50 PM)
Minimum temperature yesterday: 54 °F (at 4:20 AM)
Average temperature yesterday: 64 °F

Past Weeks' High & Low Weather Summary

 TemperatureHumidityPressure
High77 °F (Sep 17, 11:20 AM)94% (Sep 17, 7:20 PM)30.36 "Hg (Sep 17, 7:20 PM)
Low54 °F (Oct 1, 4:20 AM)33% (Sep 24, 5:50 PM)29.56 "Hg (Sep 23, 1:20 PM)
Average66 °F68%30.03 "Hg
* Reported Sep 17 2:20 AM — Oct 2 2:50 AM, Istanbul, Weather by CustomWeather, © 2014

Note: Actual official high and low records may vary slightly from our data, if they occured in-between our weather recording intervals... More about our weather records

Advertising

Istanbul weather history for previous 24 hours

 ConditionsComfort  
Time TempWeatherWind HumidityBarometerVisibility
2:50 AM
Oct 2
63 °FPassing clouds.7 mph77%30.21 "HgN/A
2:20 AM63 °FPassing clouds.7 mph77%30.21 "HgN/A
1:50 AM63 °FPassing clouds.7 mph73%30.21 "HgN/A
1:20 AM63 °FPassing clouds.5 mph73%30.21 "HgN/A
12:50 AM64 °FPassing clouds.6 mph68%30.21 "HgN/A
12:20 AM63 °FPassing clouds.3 mph73%30.21 "HgN/A
11:50 PM
Oct 1
63 °FPassing clouds.5 mph73%30.21 "HgN/A
11:20 PM64 °FPassing clouds.5 mph68%30.21 "HgN/A
10:50 PM64 °FPassing clouds.8 mph68%30.21 "HgN/A
10:20 PM64 °FPassing clouds.8 mph73%30.21 "HgN/A
9:50 PM64 °FPassing clouds.9 mph73%30.21 "HgN/A
9:20 PM66 °FClear.8 mph68%30.21 "Hg6 mi
8:50 PM66 °FPassing clouds.8 mph68%30.21 "HgN/A
8:20 PM66 °FClear.8 mph73%30.21 "Hg10 mi
7:50 PM66 °FPassing clouds.9 mph73%30.21 "HgN/A
7:20 PM66 °FSunny.9 mph73%30.21 "Hg10 mi
6:50 PM68 °FPassing clouds.12 mph64%30.18 "HgN/A
6:20 PM70 °FSunny.12 mph57%30.18 "Hg10 mi
5:50 PM70 °FPassing clouds.12 mph53%30.18 "HgN/A
5:20 PM72 °FPassing clouds.12 mph50%30.18 "HgN/A
4:50 PM72 °FPassing clouds.12 mph47%30.18 "HgN/A
4:20 PM73 °FPassing clouds.14 mph44%30.18 "HgN/A
3:50 PM75 °FPassing clouds.12 mph41%30.18 "HgN/A
3:20 PM73 °FPassing clouds.10 mph41%30.18 "HgN/A
2:50 PM75 °FPassing clouds.8 mph39%30.18 "HgN/A
2:20 PM72 °FPassing clouds.5 mph57%30.18 "HgN/A
1:50 PM70 °FPassing clouds.6 mph60%30.21 "HgN/A
1:20 PM70 °FPassing clouds.7 mph60%30.21 "HgN/A
12:50 PM70 °FSunny.3 mph57%30.21 "Hg10 mi
12:20 PM68 °FPassing clouds.7 mph60%30.21 "HgN/A
11:50 AM66 °FPassing clouds.6 mph64%30.21 "HgN/A
11:20 AM66 °FPassing clouds.5 mph60%30.24 "HgN/A
10:50 AM66 °FSunny.8 mph64%30.24 "Hg10 mi
10:20 AM64 °FPassing clouds.7 mph64%30.24 "HgN/A
9:50 AM64 °FPassing clouds.5 mph64%30.24 "HgN/A
9:20 AM63 °FPassing clouds.6 mph68%30.21 "HgN/A
8:50 AM63 °FPassing clouds.5 mph64%30.21 "HgN/A
8:20 AM61 °FPassing clouds.3 mph72%30.21 "HgN/A
7:50 AM57 °FPassing clouds.3 mph77%30.21 "HgN/A
7:20 AM59 °FClear.2 mph72%30.21 "Hg10 mi
6:50 AM54 °FClear.7 mph88%30.21 "Hg10 mi
6:20 AM54 °FClear.7 mph88%30.21 "Hg10 mi
5:50 AM54 °FClear.8 mph88%30.21 "Hg10 mi
5:20 AM55 °FClear.5 mph82%30.21 "Hg10 mi
4:50 AM54 °FClear.7 mph88%30.21 "Hg10 mi
4:20 AM54 °FClear.6 mph88%30.21 "Hg10 mi
Weather by CustomWeather, © 2014

See weather overviewHow to use our weather pages